SCP
-0 -0 -0 -0 -0 -0 -0 -0 -0 -0 -0 0 0 0 -0 -0 -0 -0 0 0 0 0 0 0 0 0 0 0 0 0 0 0 0 0 0 0 0 0 0 0 0 0 0 0 0
0 -0 -0 -0 -0 -0 -0 -0 -0 -0 0 0 0 0 0 -0 0 0 0 0 0 0 0 0 0 0 0 0 0 0 0 0 0 0 0 0 0 0 0 0 0 0 0 0 0
0 0 0 -0 -0 -0 -0 -0 -0 -0 0 -0 0 0 0 -0 -0 0 0 0 0 0 0 0 0 0 0 0 0 0 0 0 0 0 0 0 0 0 0 0 0 0 0 0 0
0 0 0 0 -0 -0 -0 -0 -0 -0 0 -0 -0 0 0 0 0 0 0 0 0 0 0 0 0 0 0 0 0 0 0 0 0 0 0 0 0 0 0 0 0 0 0 0 0
0 0 0 0 0 -0 -0 -0 -0 -0 0 -0 0 0 0 0 0 0 -0 -0 0 0 0 0 0 0 0 0 0 0 0 0 0 0 0 0 0 0 0 0 0 0 0 0 0
0 0 0 0 0 0 0 0 0 0 -0 0 0 0 0 0 0 0 0 0 0 0 0 0 0 0 0 0 0 0 0 0 0 0 0 0 0 0 0 0 0 0 0 0 0
0 0 0 0 0 0 0 0 0 0 -0 0 0 0 0 0 0 0 0 0 0 0 0 0 0 0 0 0 0 0 0 0 0 0 0 0 0 0 0 0 0 0 0 0 0
0 0 0 0 0 0 0 0 0 0 0 0 0 0 0 0 0 0 0 0 0 0 0 0 0 0 0 0 0 0 0 0 0 0 0 0 0 0 0 0 0 0 0 0 0
0 0 0 0 0 0 0 0 0 0 0 0 0 0 0 0 0 0 0 0 0 0 0 0 0 0 0 0 0 0 0 0 0 0 0 0 0 0 0 0 0 0 0 0 0
0 0 0 0 0 0 0 0 0 0 0 0 0 0 0 0 0 0 0 0 0 0 0 0 0 0 0 0 0 0 0 0 0 0 0 0 0 0 0 0 0 0 0 0 0
0 0 0 0 0 0 0 0 0 0 0 0 0 0 0 0 0 0 0 0 0 0 0 0 0 0 0 0 0 0 0 0 0 0 0 0 0 0 0 0 0 0 0 0 0
0 0 0 0 0 0 0 0 0 0 0 0 0 0 0 0 0 0 0 0 0 0 0 0 0 0 0 0 0 0 0 0 0 0 0 0 0 0 0 0 0 0 0 0 0
0 0 0 0 0 0 0 0 0 0 0 0 0 0 0 0 0 0 0 0 0 0 0 0 0 0 0 0 0 0 0 0 0 0 0 0 0 0 0 0 0 0 0 0 0
0 0 0 0 0 0 0 0 0 0 0 0 0 0 0 0 0 0 0 0 0 0 0 0 0 0 0 0 0 0 0 0 0 0 0 0 0 0 0 0 0 0 0 0 0
0 0 0 0 0 0 0 0 0 0 0 0 0 0 0 0 0 0 0 0 0 0 0 0 0 0 0 0 0 0 0 0 0 0 0 0 0 0 0 0 0 0 0 0 0
0 0 0 0 0 0 0 0 0 0 0 0 0 0 0 0 0 0 0 0 0 0 0 0 0 0 0 0 0 0 0 0 0 0 0 0 0 0 0 0 0 0 0 0 0
0 0 0 0 0 0 0 0 0 0 0 0 0 0 0 0 0 0 0 0 0 0 0 0 0 0 0 0 0 0 0 0 0 0 0 0 0 0 0 0 0 0 0 0 0
0 0 0 0 0 0 0 0 0 0 0 0 0 0 0 0 0 0 0 0 0 0 0 0 0 0 0 0 0 0 0 0 0 0 0 0 0 0 0 0 0 0 0 0 0
0 0 0 0 0 0 0 0 0 0 0 0 0 0 0 0 0 0 0 0 0 0 0 0 0 0 0 0 0 0 0 0 0 0 0 0 0 0 0 0 0 0 0 0 0
0 0 0 0 0 0 0 0 0 0 0 0 0 0 0 0 0 0 0 0 0 0 0 0 0 0 0 0 0 0 0 0 0 0 0 0 0 0 0 0 0 0 0 0 0
0 0 0 0 0 0 0 0 0 0 0 0 0 0 0 0 0 0 0 0 0 0 0 0 0 0 0 0 0 0 0 0 0 0 0 0 0 0 0 0 0 0 0 0 0
0 0 0 0 0 0 0 0 0 0 0 0 0 0 0 0 0 0 0 0 0 0 0 0 0 0 0 0 0 0 0 0 0 0 0 0 0 0 0 0 0 0 0 0 0
0 0 0 0 0 0 0 0 0 0 0 0 0 0 0 0 0 0 0 0 0 0 0 0 0 0 0 0 0 0 0 0 0 0 0 0 0 0 0 0 0 0 0 0 0
0 0 0 0 0 0 0 0 0 0 0 0 0 0 0 0 0 0 0 0 0 0 0 0 0 0 0 0 0 0 0 0 0 0 0 0 0 0 0 0 0 0 0 0 0
0 0 0 0 0 0 0 0 0 0 0 0 0 0 0 0 0 0 0 0 0 0 0 0 0 0 0 0 0 0 0 0 0 0 0 0 0 0 0 0 0 0 0 0 0
0 0 0 0 0 0 0 0 0 0 0 0 0 0 0 0 0 0 0 0 0 0 0 0 0 0 0 0 0 0 0 0 0 0 0 0 0 -0 0 0 0 0 0 0 0
0 0 0 0 0 0 0 0 0 0 0 0 0 0 0 0 0 0 0 0 0 0 0 0 0 0 0 0 0 0 0 0 0 0 0 0 0 0 0 0 0 0 0 0 0
Wind_Speed_500mb
25 27 30 34 37 38 40 42 45 46 47 47 46 20 18 20 19 14 23 23 22 19 17 13 8 9 6 5 5 2 8 1 2 9 6 2 6 10 10 20 15 11 21 40 28
24 27 29 31 34 36 37 39 41 43 44 44 42 22 7 6 11 21 22 23 23 23 21 18 16 11 3 2 2 7 7 8 3 6 7 1 4 19 12 22 22 47 43 34 24
23 25 29 30 32 35 35 35 38 40 41 41 37 24 5 3 4 8 17 19 21 20 23 19 19 8 4 4 3 2 5 5 2 8 6 7 3 5 40 7 35 53 49 33 21
20 23 25 29 31 33 34 33 34 36 37 38 33 21 4 2 2 5 9 14 16 17 18 16 16 8 5 6 3 5 4 1 11 3 7 7 4 6 20 7 35 53 44 35 23
23 24 24 26 29 32 33 34 33 34 35 34 29 15 2 4 7 10 2 4 12 15 20 23 18 12 4 6 8 2 9 2 3 6 6 7 7 7 18 36 47 50 42 31 21
22 25 27 28 28 29 32 33 34 35 33 31 24 14 6 7 10 14 6 5 7 14 20 18 11 11 1 3 1 3 7 15 12 6 7 9 10 20 29 48 50 47 39 28 19
25 25 27 30 32 31 31 32 34 36 33 31 20 13 11 13 12 15 10 5 6 10 15 10 14 6 3 3 5 5 8 9 10 10 8 6 11 17 48 58 55 50 40 32 21
32 30 30 31 33 35 33 32 32 32 34 27 15 12 9 13 13 15 11 8 6 7 12 7 14 5 2 6 3 4 5 3 7 13 6 9 21 10 64 69 59 51 44 36 28
35 35 34 34 34 37 35 33 31 29 26 16 12 8 8 10 14 18 13 11 10 6 12 6 3 4 3 6 8 9 6 10 11 25 5 10 17 6 70 65 56 56 51 43 37
36 36 35 35 35 37 36 35 22 18 5 7 7 4 12 9 12 15 19 17 10 7 5 3 3 6 7 7 6 9 9 11 12 7 9 13 28 13 54 57 62 62 56 48 41
38 36 34 32 33 34 36 32 12 7 12 21 23 20 21 25 25 24 20 15 11 4 2 4 6 8 15 12 8 6 9 15 9 9 7 27 35 35 39 41 40 61 63 53 44
37 36 33 29 28 26 23 10 8 13 23 34 42 38 38 34 14 18 17 14 11 9 2 10 8 9 9 8 8 10 12 15 19 6 8 19 24 25 23 40 69 69 69 60 48
37 33 29 26 24 19 11 10 13 20 11 12 11 9 7 13 11 17 16 13 8 9 9 10 5 16 7 7 8 9 11 12 16 9 11 18 14 40 9 29 48 60 75 61 54
39 33 30 21 20 13 10 9 12 18 8 10 7 6 9 10 5 14 16 9 5 14 10 11 4 10 10 10 14 11 7 8 8 8 6 7 18 8 12 17 23 53 70 60 50
42 33 30 21 13 13 11 8 10 5 6 7 7 12 13 11 9 9 15 8 10 11 10 14 13 10 12 13 16 15 1 8 5 8 7 11 10 12 8 16 26 35 61 57 50
42 37 31 25 23 20 15 9 2 9 15 7 11 12 9 12 8 12 9 8 4 5 5 12 1 10 13 4 3 4 6 7 5 5 4 14 16 10 13 21 24 31 57 59 49
47 43 32 28 18 19 16 9 6 9 6 10 12 11 8 11 8 13 12 10 12 3 10 1 8 2 5 5 5 5 9 8 9 3 13 7 8 30 12 16 29 44 60 62 49
47 46 39 33 26 21 17 5 15 14 14 3 6 6 14 14 10 11 9 8 11 5 4 8 13 17 9 10 13 10 12 9 13 7 27 9 16 12 10 21 41 50 66 59 48
42 43 46 36 32 29 19 12 20 17 14 18 6 7 9 8 6 9 15 13 16 21 16 12 13 4 1 3 8 9 10 3 3 2 6 10 14 13 7 5 19 42 62 59 48
42 31 49 34 35 35 7 36 16 18 11 9 25 22 17 14 13 15 16 11 11 25 9 8 12 3 4 2 2 7 8 6 2 6 13 14 18 23 14 22 16 22 45 55 46
33 17 17 38 37 30 17 18 18 36 26 16 17 13 15 17 18 14 14 8 14 10 12 12 10 5 7 16 21 4 6 6 5 9 9 8 29 11 28 35 38 34 52 59 50
32 10 27 53 27 16 26 15 16 14 61 15 8 18 22 19 14 17 27 22 40 28 21 15 10 12 27 1 4 4 18 21 9 12 9 7 34 10 21 21 47 46 51 55 46
24 27 27 74 17 25 10 13 36 15 22 18 19 17 12 17 11 21 27 14 48 25 23 18 8 5 14 3 5 11 12 12 1 2 28 16 26 4 7 15 44 45 59 55 43
28 7 24 55 47 18 25 27 26 38 40 19 16 15 10 17 27 15 9 7 21 14 21 39 12 18 33 26 11 12 16 21 34 22 38 51 74 58 33 15 16 38 56 52 46
50 23 35 14 40 40 29 17 46 29 25 60 23 38 22 26 30 26 16 2 4 10 11 15 20 15 42 31 7 32 43 30 45 53 40 80 62 64 51 27 39 69 64 57 39
60 27 27 9 23 52 56 63 54 23 26 34 47 35 47 48 42 32 42 15 18 6 14 7 13 12 32 19 21 42 49 43 52 64 52 68 73 87 64 33 30 55 59 52 42
97 75 68 48 24 27 57 65 64 44 45 64 45 41 43 60 75 68 36 24 19 27 23 17 11 9 41 7 7 30 46 54 48 49 39 43 76 59 33 18 34 53 62 57 43
Wind_Direction_500mb
8 12 12 12 12 15 16 14 14 14 15 17 16 43 83 72 73 83 64 57 48 38 33 31 11 5 25 37 49 58 62 257 262 156 197 140 141 75 137 122 77 118 140 143 153
357 0 4 6 5 7 10 10 8 7 9 14 12 27 108 83 67 71 62 55 47 35 29 26 25 25 14 350 13 86 105 214 330 131 169 271 147 143 123 108 90 109 127 146 163
348 351 351 356 358 360 2 2 360 0 2 4 10 17 116 168 0 67 70 59 44 28 19 14 3 358 1 304 356 139 170 190 92 105 166 171 188 176 144 205 177 156 143 161 188
334 338 342 344 348 352 353 354 352 350 351 353 2 8 95 183 258 179 89 63 42 29 15 356 1 2 10 334 334 341 312 199 172 159 186 184 198 113 209 224 192 169 174 181 184
318 323 328 333 336 340 344 345 346 341 339 344 348 353 258 236 234 204 196 31 26 19 14 7 23 358 11 344 335 344 335 32 195 168 154 193 194 201 141 150 157 167 176 178 165
306 311 316 320 324 328 332 335 336 335 333 332 334 327 259 232 223 220 236 270 1 8 13 14 12 353 34 317 337 341 304 288 287 263 230 193 193 166 173 161 163 170 173 175 175
301 302 306 311 316 320 323 328 330 328 325 324 317 298 263 269 225 217 221 250 330 357 3 18 353 356 339 347 330 326 329 324 238 221 258 216 276 221 189 176 175 177 179 177 170
300 302 304 307 312 316 321 324 326 321 315 309 302 276 259 246 240 216 215 249 296 324 348 352 351 38 103 306 40 63 62 353 268 176 267 151 261 208 184 180 185 181 175 165 153
298 302 305 308 312 314 319 323 323 315 304 294 281 258 255 238 226 222 228 250 289 294 315 332 356 45 26 60 5 5 234 219 299 205 140 183 279 201 184 187 187 186 175 166 155
294 299 304 308 313 316 322 328 314 301 240 300 242 266 232 229 218 233 241 248 256 269 298 341 76 60 32 69 264 254 286 264 227 240 202 228 262 267 195 194 193 191 180 174 166
290 293 299 305 311 320 329 351 342 271 238 273 255 247 258 251 264 258 238 230 207 205 6 28 42 258 250 205 216 233 230 237 233 226 223 232 241 245 203 206 201 191 183 180 176
283 292 296 299 305 318 334 14 14 315 297 273 266 262 257 265 254 221 214 202 174 195 96 13 235 213 171 224 243 241 270 265 287 231 193 266 244 247 213 211 206 191 189 184 174
273 280 286 294 297 301 311 351 340 337 285 283 252 246 230 214 213 204 196 186 168 164 191 172 251 127 175 234 244 228 215 252 237 346 288 296 245 242 236 235 207 197 192 187 183
264 271 276 280 286 254 281 318 329 339 44 262 234 206 182 172 238 198 191 194 198 194 175 229 207 163 202 239 174 271 207 261 287 3 251 355 295 236 215 239 191 182 188 184 182
259 261 267 262 240 257 265 281 315 352 343 247 187 172 180 179 148 202 192 189 198 185 130 253 180 189 201 222 163 236 75 262 243 252 346 239 250 250 138 237 207 189 185 183 184
255 255 259 255 245 243 239 242 292 55 247 238 153 179 158 195 196 158 182 192 165 155 257 245 330 183 208 118 154 76 333 293 59 118 220 228 199 213 191 217 192 190 190 186 184
253 257 246 245 239 225 217 176 38 177 281 222 207 175 184 188 203 179 175 182 189 213 240 108 217 29 154 123 30 94 63 315 326 341 246 135 221 261 240 236 196 192 187 186 185
247 252 248 236 225 213 198 69 205 218 227 57 144 125 184 159 229 175 158 229 240 131 138 217 299 174 181 196 185 177 169 171 267 250 295 316 245 248 281 296 239 191 178 181 185
239 243 249 231 221 212 204 214 196 192 201 158 72 170 231 229 201 153 203 203 212 170 190 179 263 111 42 153 147 174 187 148 197 87 9 240 279 289 77 67 128 153 175 185 189
229 239 245 233 213 205 193 230 216 204 157 151 188 183 190 202 178 182 189 201 218 189 165 215 283 214 169 147 42 165 154 78 359 287 270 259 275 252 203 210 178 185 191 190 195
213 239 232 222 198 193 219 224 223 240 217 177 207 215 199 184 196 194 218 232 202 170 158 145 178 189 123 207 181 150 201 204 195 163 225 306 279 211 197 204 190 201 195 194 198
201 233 197 185 187 213 225 192 225 217 227 256 220 212 202 186 207 211 213 204 191 157 169 200 167 206 211 219 331 190 198 177 177 219 212 226 262 213 207 195 197 202 194 198 203
214 227 199 180 213 217 242 237 228 190 198 211 231 194 187 189 242 209 239 218 179 157 171 179 210 327 313 61 356 218 209 202 257 52 235 241 269 241 143 175 200 190 190 195 204
201 220 192 206 224 221 217 232 223 218 231 206 209 178 162 225 223 256 226 231 200 215 191 159 187 186 242 241 135 207 197 208 215 236 258 242 262 265 250 196 183 187 195 201 207
201 215 198 204 221 220 216 231 223 218 209 207 232 216 191 232 224 230 220 232 330 220 180 172 229 198 250 262 187 265 255 191 220 236 237 262 264 264 269 232 198 203 198 199 198
215 208 181 242 201 210 220 233 233 224 183 215 222 203 218 230 213 227 221 175 198 165 173 198 251 168 265 207 227 258 260 241 242 248 248 253 268 265 277 261 172 188 187 186 197
220 229 219 221 203 198 222 231 233 222 236 230 224 226 225 227 231 242 220 209 211 169 186 166 172 141 257 124 38 275 242 232 246 244 232 241 245 266 265 198 182 180 180 188 195
Wind_Speed_850mb
25 27 30 34 37 38 40 42 45 46 47 47 46 20 18 20 19 14 23 23 22 19 17 13 8 9 6 5 5 2 8 1 2 9 6 2 6 10 10 20 15 11 21 40 28
24 27 29 31 34 36 37 39 41 43 44 44 42 22 7 6 11 21 22 23 23 23 21 18 16 11 3 2 2 7 7 8 3 6 7 1 4 19 12 22 22 47 43 34 24
23 25 29 30 32 35 35 35 38 40 41 41 37 24 5 3 4 8 17 19 21 20 23 19 19 8 4 4 3 2 5 5 2 8 6 7 3 5 40 7 35 53 49 33 21
20 23 25 29 31 33 34 33 34 36 37 38 33 21 4 2 2 5 9 14 16 17 18 16 16 8 5 6 3 5 4 1 11 3 7 7 4 6 20 7 35 53 44 35 23
23 24 24 26 29 32 33 34 33 34 35 34 29 15 2 4 7 10 2 4 12 15 20 23 18 12 4 6 8 2 9 2 3 6 6 7 7 7 18 36 47 50 42 31 21
22 25 27 28 28 29 32 33 34 35 33 31 24 14 6 7 10 14 6 5 7 14 20 18 11 11 1 3 1 3 7 15 12 6 7 9 10 20 29 48 50 47 39 28 19
25 25 27 30 32 31 31 32 34 36 33 31 20 13 11 13 12 15 10 5 6 10 15 10 14 6 3 3 5 5 8 9 10 10 8 6 11 17 48 58 55 50 40 32 21
32 30 30 31 33 35 33 32 32 32 34 27 15 12 9 13 13 15 11 8 6 7 12 7 14 5 2 6 3 4 5 3 7 13 6 9 21 10 64 69 59 51 44 36 28
35 35 34 34 34 37 35 33 31 29 26 16 12 8 8 10 14 18 13 11 10 6 12 6 3 4 3 6 8 9 6 10 11 25 5 10 17 6 70 65 56 56 51 43 37
36 36 35 35 35 37 36 35 22 18 5 7 7 4 12 9 12 15 19 17 10 7 5 3 3 6 7 7 6 9 9 11 12 7 9 13 28 13 54 57 62 62 56 48 41
38 36 34 32 33 34 36 32 12 7 12 21 23 20 21 25 25 24 20 15 11 4 2 4 6 8 15 12 8 6 9 15 9 9 7 27 35 35 39 41 40 61 63 53 44
37 36 33 29 28 26 23 10 8 13 23 34 42 38 38 34 14 18 17 14 11 9 2 10 8 9 9 8 8 10 12 15 19 6 8 19 24 25 23 40 69 69 69 60 48
37 33 29 26 24 19 11 10 13 20 11 12 11 9 7 13 11 17 16 13 8 9 9 10 5 16 7 7 8 9 11 12 16 9 11 18 14 40 9 29 48 60 75 61 54
39 33 30 21 20 13 10 9 12 18 8 10 7 6 9 10 5 14 16 9 5 14 10 11 4 10 10 10 14 11 7 8 8 8 6 7 18 8 12 17 23 53 70 60 50
42 33 30 21 13 13 11 8 10 5 6 7 7 12 13 11 9 9 15 8 10 11 10 14 13 10 12 13 16 15 1 8 5 8 7 11 10 12 8 16 26 35 61 57 50
42 37 31 25 23 20 15 9 2 9 15 7 11 12 9 12 8 12 9 8 4 5 5 12 1 10 13 4 3 4 6 7 5 5 4 14 16 10 13 21 24 31 57 59 49
47 43 32 28 18 19 16 9 6 9 6 10 12 11 8 11 8 13 12 10 12 3 10 1 8 2 5 5 5 5 9 8 9 3 13 7 8 30 12 16 29 44 60 62 49
47 46 39 33 26 21 17 5 15 14 14 3 6 6 14 14 10 11 9 8 11 5 4 8 13 17 9 10 13 10 12 9 13 7 27 9 16 12 10 21 41 50 66 59 48
42 43 46 36 32 29 19 12 20 17 14 18 6 7 9 8 6 9 15 13 16 21 16 12 13 4 1 3 8 9 10 3 3 2 6 10 14 13 7 5 19 42 62 59 48
42 31 49 34 35 35 7 36 16 18 11 9 25 22 17 14 13 15 16 11 11 25 9 8 12 3 4 2 2 7 8 6 2 6 13 14 18 23 14 22 16 22 45 55 46
33 17 17 38 37 30 17 18 18 36 26 16 17 13 15 17 18 14 14 8 14 10 12 12 10 5 7 16 21 4 6 6 5 9 9 8 29 11 28 35 38 34 52 59 50
32 10 27 53 27 16 26 15 16 14 61 15 8 18 22 19 14 17 27 22 40 28 21 15 10 12 27 1 4 4 18 21 9 12 9 7 34 10 21 21 47 46 51 55 46
24 27 27 74 17 25 10 13 36 15 22 18 19 17 12 17 11 21 27 14 48 25 23 18 8 5 14 3 5 11 12 12 1 2 28 16 26 4 7 15 44 45 59 55 43
28 7 24 55 47 18 25 27 26 38 40 19 16 15 10 17 27 15 9 7 21 14 21 39 12 18 33 26 11 12 16 21 34 22 38 51 74 58 33 15 16 38 56 52 46
50 23 35 14 40 40 29 17 46 29 25 60 23 38 22 26 30 26 16 2 4 10 11 15 20 15 42 31 7 32 43 30 45 53 40 80 62 64 51 27 39 69 64 57 39
60 27 27 9 23 52 56 63 54 23 26 34 47 35 47 48 42 32 42 15 18 6 14 7 13 12 32 19 21 42 49 43 52 64 52 68 73 87 64 33 30 55 59 52 42
97 75 68 48 24 27 57 65 64 44 45 64 45 41 43 60 75 68 36 24 19 27 23 17 11 9 41 7 7 30 46 54 48 49 39 43 76 59 33 18 34 53 62 57 43
Wind_Direction_850mb
8 12 12 12 12 15 16 14 14 14 15 17 16 43 83 72 73 83 64 57 48 38 33 31 11 5 25 37 49 58 62 257 262 156 197 140 141 75 137 122 77 118 140 143 153
357 0 4 6 5 7 10 10 8 7 9 14 12 27 108 83 67 71 62 55 47 35 29 26 25 25 14 350 13 86 105 214 330 131 169 271 147 143 123 108 90 109 127 146 163
348 351 351 356 358 360 2 2 360 0 2 4 10 17 116 168 0 67 70 59 44 28 19 14 3 358 1 304 356 139 170 190 92 105 166 171 188 176 144 205 177 156 143 161 188
334 338 342 344 348 352 353 354 352 350 351 353 2 8 95 183 258 179 89 63 42 29 15 356 1 2 10 334 334 341 312 199 172 159 186 184 198 113 209 224 192 169 174 181 184
318 323 328 333 336 340 344 345 346 341 339 344 348 353 258 236 234 204 196 31 26 19 14 7 23 358 11 344 335 344 335 32 195 168 154 193 194 201 141 150 157 167 176 178 165
306 311 316 320 324 328 332 335 336 335 333 332 334 327 259 232 223 220 236 270 1 8 13 14 12 353 34 317 337 341 304 288 287 263 230 193 193 166 173 161 163 170 173 175 175
301 302 306 311 316 320 323 328 330 328 325 324 317 298 263 269 225 217 221 250 330 357 3 18 353 356 339 347 330 326 329 324 238 221 258 216 276 221 189 176 175 177 179 177 170
300 302 304 307 312 316 321 324 326 321 315 309 302 276 259 246 240 216 215 249 296 324 348 352 351 38 103 306 40 63 62 353 268 176 267 151 261 208 184 180 185 181 175 165 153
298 302 305 308 312 314 319 323 323 315 304 294 281 258 255 238 226 222 228 250 289 294 315 332 356 45 26 60 5 5 234 219 299 205 140 183 279 201 184 187 187 186 175 166 155
294 299 304 308 313 316 322 328 314 301 240 300 242 266 232 229 218 233 241 248 256 269 298 341 76 60 32 69 264 254 286 264 227 240 202 228 262 267 195 194 193 191 180 174 166
290 293 299 305 311 320 329 351 342 271 238 273 255 247 258 251 264 258 238 230 207 205 6 28 42 258 250 205 216 233 230 237 233 226 223 232 241 245 203 206 201 191 183 180 176
283 292 296 299 305 318 334 14 14 315 297 273 266 262 257 265 254 221 214 202 174 195 96 13 235 213 171 224 243 241 270 265 287 231 193 266 244 247 213 211 206 191 189 184 174
273 280 286 294 297 301 311 351 340 337 285 283 252 246 230 214 213 204 196 186 168 164 191 172 251 127 175 234 244 228 215 252 237 346 288 296 245 242 236 235 207 197 192 187 183
264 271 276 280 286 254 281 318 329 339 44 262 234 206 182 172 238 198 191 194 198 194 175 229 207 163 202 239 174 271 207 261 287 3 251 355 295 236 215 239 191 182 188 184 182
259 261 267 262 240 257 265 281 315 352 343 247 187 172 180 179 148 202 192 189 198 185 130 253 180 189 201 222 163 236 75 262 243 252 346 239 250 250 138 237 207 189 185 183 184
255 255 259 255 245 243 239 242 292 55 247 238 153 179 158 195 196 158 182 192 165 155 257 245 330 183 208 118 154 76 333 293 59 118 220 228 199 213 191 217 192 190 190 186 184
253 257 246 245 239 225 217 176 38 177 281 222 207 175 184 188 203 179 175 182 189 213 240 108 217 29 154 123 30 94 63 315 326 341 246 135 221 261 240 236 196 192 187 186 185
247 252 248 236 225 213 198 69 205 218 227 57 144 125 184 159 229 175 158 229 240 131 138 217 299 174 181 196 185 177 169 171 267 250 295 316 245 248 281 296 239 191 178 181 185
239 243 249 231 221 212 204 214 196 192 201 158 72 170 231 229 201 153 203 203 212 170 190 179 263 111 42 153 147 174 187 148 197 87 9 240 279 289 77 67 128 153 175 185 189
229 239 245 233 213 205 193 230 216 204 157 151 188 183 190 202 178 182 189 201 218 189 165 215 283 214 169 147 42 165 154 78 359 287 270 259 275 252 203 210 178 185 191 190 195
213 239 232 222 198 193 219 224 223 240 217 177 207 215 199 184 196 194 218 232 202 170 158 145 178 189 123 207 181 150 201 204 195 163 225 306 279 211 197 204 190 201 195 194 198
201 233 197 185 187 213 225 192 225 217 227 256 220 212 202 186 207 211 213 204 191 157 169 200 167 206 211 219 331 190 198 177 177 219 212 226 262 213 207 195 197 202 194 198 203
214 227 199 180 213 217 242 237 228 190 198 211 231 194 187 189 242 209 239 218 179 157 171 179 210 327 313 61 356 218 209 202 257 52 235 241 269 241 143 175 200 190 190 195 204
201 220 192 206 224 221 217 232 223 218 231 206 209 178 162 225 223 256 226 231 200 215 191 159 187 186 242 241 135 207 197 208 215 236 258 242 262 265 250 196 183 187 195 201 207
201 215 198 204 221 220 216 231 223 218 209 207 232 216 191 232 224 230 220 232 330 220 180 172 229 198 250 262 187 265 255 191 220 236 237 262 264 264 269 232 198 203 198 199 198
215 208 181 242 201 210 220 233 233 224 183 215 222 203 218 230 213 227 221 175 198 165 173 198 251 168 265 207 227 258 260 241 242 248 248 253 268 265 277 261 172 188 187 186 197
220 229 219 221 203 198 222 231 233 222 236 230 224 226 225 227 231 242 220 209 211 169 186 166 172 141 257 124 38 275 242 232 246 244 232 241 245 266 265 198 182 180 180 188 195